Date String (YYYY-MM-DD hh:mm:ss) UTC,Instrument flags,absolute air pressure of the measurement (hPa),sample flow rate (lpm),inlet stack bypass flow (lpm),air temperature of the measurement (°C),ambient temperature measured by the external sensor (°C),aerosol sample conditioner tube jacket temperature (°C),OPC LED temperature (°C),internal box temperature (°C),relative humidity of the measurement (%),span deviation,mass concentration of particles derived from Lorenz-Mie calculation of OPC scattering (μg/m³),mass concentration of particles derived from Lorenz-Mie calculation of OPC scattering (μg/m³),mass concentration of particles derived from Lorenz-Mie calculation of OPC scattering (μg/m³)
DateTimeUTC,F1_M11,P_M11,Q1_M11,Q2_M11,T1_M11,T2_M11,T3_M11,T4_M11,T5_M11,U1_M11,ZSPAN_M11,X0_M11,X2_M11,X1_M11
2024-05-29 03:00:00,SystemResetWarning,0832.7,5.00,000.00,029.7,027.8,000.0,038.4,031.1,020.4,0000.0,0015.59,0004.38,0002.98
2024-05-29 03:01:00,SystemResetWarning,0832.7,5.00,000.00,029.7,028.1,000.0,038.3,031.3,020.3,0000.0,0014.98,0004.39,0003.00
2024-05-29 03:02:00,SystemResetWarning,0832.7,5.00,000.00,029.8,028.4,000.0,038.3,031.4,020.2,0000.0,0015.00,0004.42,0003.01
2024-05-29 03:03:00,SystemResetWarning,0832.7,5.01,000.00,029.8,028.6,000.0,038.3,031.5,020.0,0000.0,0015.45,0004.41,0003.01
2024-05-29 03:04:00,SystemResetWarning,0832.8,4.99,000.00,029.8,028.8,000.0,038.3,031.5,020.0,0000.0,0016.13,0004.44,0003.03
2024-05-29 03:05:00,SystemResetWarning,0832.8,4.99,000.00,029.9,028.9,000.0,038.2,031.6,019.9,0000.0,0016.81,0004.52,0003.06
2024-05-29 03:06:00,SystemResetWarning,0832.8,5.00,000.00,029.9,029.0,000.0,038.2,031.7,019.8,0000.0,0017.77,0004.50,0003.07
2024-05-29 03:07:00,SystemResetWarning,0832.8,5.00,000.00,030.0,029.1,000.0,038.3,031.7,019.7,0000.0,0016.73,0004.45,0003.09
2024-05-29 03:08:00,SystemResetWarning,0832.9,5.01,000.00,030.0,029.2,000.0,038.3,031.8,019.6,0000.0,0017.60,0004.42,0003.10
2024-05-29 03:09:00,SystemResetWarning,0833.4,5.00,000.00,030.0,029.3,000.0,038.3,031.8,019.6,0000.0,0018.10,0004.44,0003.10
2024-05-29 03:10:00,SystemResetWarning,0833.4,5.01,000.00,030.1,029.4,000.0,038.3,031.9,019.5,0000.0,0017.81,0004.46,0003.11
2024-05-29 03:11:00,SystemResetWarning,0833.4,5.01,000.00,030.1,029.5,000.0,038.3,031.9,019.4,0000.0,0018.15,0004.46,0003.11
2024-05-29 03:12:00,SystemResetWarning,0833.4,4.99,000.00,030.2,029.5,000.0,038.3,031.9,019.3,0000.0,0018.44,0004.44,0003.10
2024-05-29 03:13:00,SystemResetWarning,0833.3,4.99,000.00,030.2,029.6,000.0,038.4,031.9,019.3,0000.0,0019.55,0004.43,0003.10
2024-05-29 03:14:00,SystemResetWarning,0833.1,5.01,000.00,030.2,029.6,000.0,038.4,032.0,019.3,0000.0,0020.15,0004.45,0003.11
2024-05-29 03:15:00,SystemResetWarning,0833.0,5.01,000.00,030.2,029.6,000.0,038.4,032.0,019.2,0000.0,0020.97,0004.47,0003.11
2024-05-29 03:16:00,SystemResetWarning,0832.8,4.99,000.00,030.3,029.7,000.0,038.4,032.0,019.1,0000.0,0021.33,0004.48,0003.12
2024-05-29 03:17:00,SystemResetWarning,0832.8,4.99,000.00,030.3,029.7,000.0,038.4,032.1,019.1,0000.0,0020.31,0004.52,0003.13
2024-05-29 03:18:00,SystemResetWarning,0832.8,5.00,000.00,030.3,029.7,000.0,038.5,032.1,019.1,0000.0,0019.34,0004.54,0003.13
2024-05-29 03:19:00,SystemResetWarning,0832.8,5.00,000.00,030.4,029.8,000.0,038.5,032.1,019.0,0000.0,0019.13,0004.57,0003.12
2024-05-29 03:20:00,SystemResetWarning,0832.8,5.01,000.00,030.4,029.8,000.0,038.5,032.1,019.1,0000.0,0019.51,0004.65,0003.13
2024-05-29 03:21:00,SystemResetWarning,0832.9,5.00,000.00,030.4,029.8,000.0,038.5,032.1,019.1,0000.0,0019.19,0004.60,0003.13
2024-05-29 03:22:00,SystemResetWarning,0832.9,4.99,000.00,030.4,029.8,000.0,038.6,032.2,018.9,0000.0,0020.18,0004.60,0003.12
2024-05-29 03:23:00,SystemResetWarning,0833.2,5.00,000.00,030.4,029.8,000.0,038.6,032.2,018.8,0000.0,0021.72,0004.67,0003.13
2024-05-29 03:24:00,SystemResetWarning,0833.2,5.01,000.00,030.5,029.9,000.0,038.6,032.2,018.9,0000.0,0021.11,0004.73,0003.13
2024-05-29 03:25:00,SystemResetWarning,0833.0,5.01,000.00,030.5,029.9,000.0,038.6,032.2,018.9,0000.0,0020.64,0004.76,0003.13
2024-05-29 03:26:00,SystemResetWarning,0832.9,5.00,000.00,030.5,029.9,000.0,038.7,032.2,018.8,0000.0,0019.43,0004.68,0003.12
2024-05-29 03:27:00,SystemResetWarning,0833.0,4.99,000.00,030.5,029.9,000.0,038.7,032.3,018.7,0000.0,0019.37,0004.63,0003.10
2024-05-29 03:28:00,SystemResetWarning,0832.9,4.99,000.00,030.5,029.9,000.0,038.7,032.3,018.9,0000.0,0019.28,0004.59,0003.10
2024-05-29 03:29:00,SystemResetWarning,0833.0,5.00,000.00,030.6,029.9,000.0,038.7,032.3,018.7,0000.0,0019.49,0004.59,0003.10
2024-05-29 03:30:00,SystemResetWarning,0832.9,5.00,000.00,030.6,029.9,000.0,038.7,032.3,018.5,0000.0,0018.79,0004.56,0003.10
2024-05-29 03:31:00,SystemResetWarning,0833.1,5.01,000.00,030.6,029.9,000.0,038.8,032.3,018.6,0000.0,0018.08,0004.45,0003.10
2024-05-29 03:32:00,SystemResetWarning,0833.0,5.00,000.00,030.6,029.9,000.0,038.8,032.3,018.6,0000.0,0018.35,0004.47,0003.10
2024-05-29 03:33:00,SystemResetWarning,0832.9,5.00,000.00,030.6,030.0,000.0,038.8,032.3,018.8,0000.0,0017.35,0004.49,0003.11
2024-05-29 03:34:00,SystemResetWarning,0833.1,5.00,000.00,030.6,030.0,000.0,038.8,032.3,018.9,0000.0,0015.78,0004.41,0003.11
2024-05-29 03:35:00,SystemResetWarning,0833.2,4.99,000.00,030.7,030.0,000.0,038.8,032.4,019.2,0000.0,0015.91,0004.34,0003.12
2024-05-29 03:36:00,SystemResetWarning,0833.3,4.99,000.00,030.7,030.0,000.0,038.8,032.4,019.1,0000.0,0015.57,0004.28,0003.12
2024-05-29 03:37:00,SystemResetWarning,0832.9,5.00,000.00,030.7,030.0,000.0,038.9,032.4,019.5,0000.0,0015.07,0004.30,0003.14
2024-05-29 03:38:00,SystemResetWarning,0832.9,5.00,000.00,030.7,030.0,000.0,038.9,032.4,020.0,0000.0,0013.91,0004.28,0003.15
2024-05-29 03:39:00,SystemResetWarning,0833.0,5.01,000.00,030.7,030.1,000.0,038.9,032.4,020.1,0000.0,0013.85,0004.31,0003.17
2024-05-29 03:40:00,SystemResetWarning,0832.9,4.99,000.00,030.8,030.1,000.0,038.9,032.4,020.1,0000.0,0013.66,0004.30,0003.17
2024-05-29 03:41:00,SystemResetWarning,0833.0,5.01,000.00,030.8,030.1,000.0,038.9,032.5,019.8,0000.0,0013.94,0004.39,0003.20
2024-05-29 03:42:00,SystemResetWarning,0833.0,5.00,000.00,030.8,030.1,000.0,039.0,032.5,019.7,0000.0,0013.71,0004.43,0003.21
2024-05-29 03:43:00,SystemResetWarning,0832.9,5.00,000.00,030.8,030.1,000.0,039.0,032.5,019.9,0000.0,0013.75,0004.43,0003.21
2024-05-29 03:44:00,SystemResetWarning,0832.9,5.00,000.00,030.8,030.2,000.0,039.0,032.5,019.8,0000.0,0014.02,0004.43,0003.23
2024-05-29 03:45:00,SystemResetWarning,0833.0,4.99,000.00,030.8,030.2,000.0,039.0,032.5,020.0,0000.0,0014.33,0004.45,0003.24
2024-05-29 03:46:00,SystemResetWarning,0832.9,5.01,000.00,030.9,030.2,000.0,039.0,032.5,020.7,0000.0,0013.95,0004.48,0003.24
2024-05-29 03:47:00,SystemResetWarning,0833.0,5.00,000.00,030.9,030.2,000.0,039.1,032.6,021.4,0000.0,0013.95,0004.55,0003.26
2024-05-29 03:48:00,SystemResetWarning,0833.1,5.01,000.00,030.9,030.2,000.0,039.1,032.6,022.2,0000.0,0014.29,0004.63,0003.29
2024-05-29 03:49:00,SystemResetWarning,0833.3,5.00,000.00,030.9,030.2,000.0,039.1,032.6,022.4,0000.0,0014.57,0004.73,0003.33
2024-05-29 03:50:00,SystemResetWarning,0833.4,5.00,000.00,030.9,030.3,000.0,039.1,032.6,022.4,0000.0,0016.14,0004.80,0003.37
2024-05-29 03:51:00,SystemResetWarning,0833.2,5.00,000.00,030.9,030.3,000.0,039.1,032.6,022.5,0000.0,0016.84,0004.85,0003.42
2024-05-29 03:52:00,SystemResetWarning,0832.8,5.00,000.00,031.0,030.3,000.0,039.2,032.6,022.5,0000.0,0016.80,0004.88,0003.44
2024-05-29 03:53:00,SystemResetWarning,0832.8,5.00,000.00,031.0,030.3,000.0,039.2,032.7,022.7,0000.0,0018.09,0004.93,0003.49
2024-05-29 03:54:00,SystemResetWarning,0832.7,5.00,000.00,031.0,030.3,000.0,039.2,032.7,022.7,0000.0,0019.53,0005.01,0003.55
2024-05-29 03:55:00,SystemResetWarning,0832.7,5.00,000.00,031.0,030.3,000.0,039.2,032.7,022.1,0000.0,0019.86,0005.03,0003.58
2024-05-29 03:56:00,SystemResetWarning,0832.7,5.00,000.00,031.0,030.3,000.0,039.2,032.7,022.1,0000.0,0020.00,0005.12,0003.61
2024-05-29 03:57:00,SystemResetWarning,0832.8,5.00,000.00,031.0,030.3,000.0,039.2,032.7,022.5,0000.0,0021.53,0005.17,0003.66
2024-05-29 03:58:00,SystemResetWarning,0832.8,5.00,000.00,031.0,030.4,000.0,039.3,032.7,022.2,0000.0,0022.57,0005.24,0003.69
2024-05-29 03:59:00,SystemResetWarning,0832.8,4.99,000.00,031.1,030.4,000.0,039.3,032.7,021.5,0000.0,0023.12,0005.29,0003.72
